Moose, WY

4:52 PM MST on January 19, 2017 (GMT -0700)
Jackson Hole

Weather History for KJAC - October, 2012

Change the Weather History Date:

Tuesday, October 16, 2012

  Actual Average Record
Temperature  
Mean Temperature 45 °F -  
Max Temperature 53 °F 53 °F 71 °F (1991)
Min Temperature 37 °F 22 °F 9 °F (1984)
Degree Days  
Heating Degree Days 20    
Moisture  
Dew Point 32 °F    
Average Humidity 62    
Maximum Humidity 100    
Minimum Humidity 31    
Precipitation  
Precipitation 0.00 in - - ()
Sea Level Pressure  
Sea Level Pressure 29.88 in    
Wind  
Wind Speed 11 mph (SW)    
Max Wind Speed 29 mph    
Max Gust Speed 41 mph    
Visibility 10 miles    
Events Rain , Thunderstorm    
Averages and records for this station are not official NWS values.
T = Trace of Precipitation, MM = Missing Value Source: NWS Daily Summary

Daily Weather History Graph

Daily Weather History Graph

Search for Another Location

Airport or City:

Trip Planner

Search our weather history database for the weather conditions in past years. The results will help you decide how hot, cold, wet, or windy it might be!

Date:

Astronomy

Oct. 16, 2012 Rise Set
Actual Time 7:39 AM MDT 6:37 PM MDT
Civil Twilight 7:10 AM MDT 7:05 PM MDT
Nautical Twilight 6:36 AM MDT 7:39 PM MDT
Astronomical Twilight 6:03 AM MDT 8:12 PM MDT
Moon 9:10 AM MDT (10/16) 7:19 PM MDT (10/16)
Length of Visible Light 11h 55m
Length of Day
10h 57m
New Moon, 2% of the Moon is Illuminated
Oct 16
New Moon
Oct 21
First Quarter
Oct 29
Full
Nov 6
Last Quarter
Nov 13
New

Hourly Weather History & Observations

Time (MDT) Temp. Windchill Dew Point Humidity Pressure Visibility Wind Dir Wind Speed Gust Speed Precip Events Conditions
12:15 AM 50.0 °F - 37.4 °F 62% 30.05 in 10.0 mi South 8.1 mph - N/A   Scattered Clouds
12:35 AM 46.4 °F 42.9 °F 37.4 °F 71% 30.04 in 10.0 mi South 6.9 mph - N/A   Mostly Cloudy
12:55 AM 48.2 °F - 37.4 °F 66% 30.04 in 10.0 mi South 9.2 mph - N/A   Overcast
1:15 AM 48.2 °F - 37.4 °F 66% 30.03 in 10.0 mi SSW 8.1 mph - N/A   Overcast
1:35 AM 48.2 °F - 37.4 °F 66% 30.02 in 10.0 mi Calm Calm - N/A   Overcast
1:55 AM 46.4 °F 42.4 °F 37.4 °F 71% 30.01 in 10.0 mi SW 8.1 mph - N/A   Overcast
2:35 AM 48.2 °F - 37.4 °F 66% 30.01 in 10.0 mi South 3.5 mph - N/A   Overcast
2:55 AM 46.4 °F 45.2 °F 37.4 °F 71% 30.00 in 10.0 mi WSW 3.5 mph - N/A   Overcast
3:15 AM 46.4 °F - 37.4 °F 71% 29.99 in 10.0 mi Calm Calm - N/A   Overcast
3:35 AM 46.4 °F - 37.4 °F 71% 29.98 in 10.0 mi Calm Calm - N/A   Mostly Cloudy
3:55 AM 48.2 °F - 37.4 °F 66% 29.97 in 10.0 mi SSW 4.6 mph - N/A   Overcast
4:15 AM 48.2 °F - 37.4 °F 66% 29.95 in 10.0 mi SW 5.8 mph - N/A   Overcast
4:35 AM 48.2 °F - 37.4 °F 66% 29.94 in 10.0 mi SSW 6.9 mph - N/A   Overcast
4:55 AM 48.2 °F - 39.2 °F 71% 29.94 in 10.0 mi SSW 10.4 mph 17.3 mph N/A   Overcast
5:15 AM 51.8 °F - 37.4 °F 58% 29.93 in 10.0 mi South 18.4 mph 25.3 mph N/A   Overcast
5:35 AM 51.8 °F - 39.2 °F 62% 29.93 in 10.0 mi South 18.4 mph - N/A   Overcast
5:55 AM 48.2 °F - 39.2 °F 71% 29.93 in 10.0 mi SSW 12.7 mph - N/A   Overcast
6:15 AM 48.2 °F - 41.0 °F 76% 29.93 in 10.0 mi SSW 10.4 mph - N/A   Overcast
6:35 AM 46.4 °F 40.1 °F 42.8 °F 87% 29.92 in 10.0 mi South 15.0 mph - N/A   Overcast
6:51 AM 46.4 °F 40.7 °F 42.8 °F 87% 29.91 in 10.0 mi South 12.7 mph - N/A   Mostly Cloudy
7:51 AM 44.6 °F 38.4 °F 42.8 °F 93% 29.89 in 10.0 mi South 12.7 mph - N/A   Overcast
8:51 AM 44.6 °F 38.1 °F 44.6 °F 100% 29.87 in 6.0 mi South 13.8 mph - N/A Rain Light Rain
9:52 AM 44.6 °F 38.8 °F 42.8 °F 93% 29.84 in 6.0 mi South 11.5 mph - N/A   Overcast
10:51 AM 46.4 °F 40.7 °F 44.6 °F 93% 29.81 in 8.0 mi South 12.7 mph - N/A   Overcast
11:55 AM 48.2 °F - 44.6 °F 87% 29.75 in 8.0 mi South 17.3 mph 29.9 mph N/A   Overcast
12:55 PM 48.2 °F - 44.6 °F 87% 29.73 in 10.0 mi South 23.0 mph 32.2 mph N/A   Overcast
1:57 PM 53.6 °F - 44.6 °F 72% 29.65 in 10.0 mi South 17.3 mph 34.5 mph N/A   Overcast
2:59 PM 46.4 °F 39.5 °F 39.2 °F 76% 29.68 in 10.0 mi SW 17.3 mph 34.5 mph N/A   Overcast
3:54 PM 51.8 °F - 39.2 °F 62% 29.68 in 10.0 mi WSW 21.9 mph 33.4 mph N/A   Mostly Cloudy
4:55 PM 50.0 °F - 35.6 °F 58% 29.68 in 10.0 mi SW 23.0 mph 35.7 mph N/A   Mostly Cloudy
5:51 PM 50.0 °F - 33.8 °F 54% 29.68 in 10.0 mi SSW 28.8 mph 40.3 mph N/A Thunderstorm Thunderstorm
6:53 PM 44.6 °F 38.8 °F 33.8 °F 66% 29.76 in 10.0 mi WSW 11.5 mph 28.8 mph N/A Thunderstorm Thunderstorm
7:56 PM 44.6 °F 37.4 °F 21.2 °F 39% 29.80 in 10.0 mi SW 16.1 mph 28.8 mph N/A   Overcast
8:51 PM 44.6 °F 38.8 °F 17.6 °F 34% 29.82 in 10.0 mi WSW 11.5 mph 23.0 mph N/A   Mostly Cloudy
8:55 PM 42.8 °F 36.6 °F 17.6 °F 36% 29.84 in 10.0 mi West 11.5 mph 24.2 mph N/A   Mostly Cloudy
9:15 PM 41.0 °F 35.2 °F 17.6 °F 39% 29.86 in 10.0 mi WNW 9.2 mph - N/A   Partly Cloudy
9:35 PM 42.8 °F 35.8 °F 15.8 °F 34% 29.86 in 10.0 mi WNW 13.8 mph 27.6 mph N/A   Clear
9:55 PM 41.0 °F 32.5 °F 14.0 °F 33% 29.87 in 10.0 mi WNW 17.3 mph 29.9 mph N/A   Clear
10:15 PM 39.2 °F 32.5 °F 14.0 °F 36% 29.88 in 10.0 mi West 10.4 mph 21.9 mph N/A   Clear
10:35 PM 39.2 °F 29.3 °F 12.2 °F 33% 29.88 in 10.0 mi West 20.7 mph 34.5 mph N/A   Clear
10:55 PM 39.2 °F 29.0 °F 10.4 °F 31% 29.87 in 10.0 mi WNW 21.9 mph 38.0 mph N/A   Clear
11:15 PM 37.4 °F 27.2 °F 10.4 °F 33% 29.87 in 10.0 mi WNW 19.6 mph 36.8 mph N/A   Clear
11:35 PM 37.4 °F 25.2 °F 10.4 °F 33% 29.89 in 10.0 mi WNW 28.8 mph 41.4 mph N/A   Clear
11:55 PM 37.4 °F 26.1 °F 10.4 °F 33% 29.90 in 10.0 mi NW 24.2 mph 32.2 mph N/A   Clear